| time (UTC) | temp C | wind direction | speed KPH | gust KPH | rain 1hr cm | rain 24hr cm | rain mn cm | humidity % | barometer mb |
| 20260506104505 | 11 | 341 | 3.2 | 11.3 | 0.00 | 0.00 | 0.00 | 65 | 1010.7 |
| 20260506104433 | 11 | 343 | 3.2 | 14.5 | 0.00 | 0.00 | 0.00 | 65 | 1010.7 |
| 20260506103004 | 12 | 21 | 3.2 | 14.5 | 0.00 | 0.00 | 0.00 | 61 | 1010.6 |
| 20260506101503 | 12 | 36 | 4.8 | 17.7 | 0.00 | 0.00 | 0.00 | 62 | 1010.6 |
| 20260506101433 | 12 | 32 | 9.7 | 17.7 | 0.00 | 0.00 | 0.00 | 60 | 1010.7 |
| 20260506100218 | 12 | 27 | 4.8 | 12.9 | 0.00 | 0.00 | 0.00 | 60 | 1010.6 |
| 20260506094503 | 11 | 348 | 6.4 | 12.9 | 0.00 | 0.00 | 0.00 | 64 | 1010.6 |
| 20260506094433 | 11 | 337 | 6.4 | 12.9 | 0.00 | 0.00 | 0.00 | 64 | 1010.7 |
| 20260506093003 | 11 | 18 | 4.8 | 12.9 | 0.00 | 0.00 | 0.00 | 64 | 1010.9 |
| 20260506091719 | 11 | 328 | 4.8 | 12.9 | 0.00 | 0.00 | 0.00 | 61 | 1010.6 |
| 20260506091433 | 11 | 330 | 3.2 | 12.9 | 0.00 | 0.00 | 0.00 | 64 | 1010.8 |
| 20260506090004 | 10 | 358 | 4.8 | 12.9 | 0.00 | 0.00 | 0.00 | 67 | 1010.8 |
| 20260506084717 | 10 | 356 | 3.2 | 14.5 | 0.00 | 0.00 | 0.00 | 68 | 1010.5 |
| 20260506084433 | 10 | 11 | 3.2 | 17.7 | 0.00 | 0.00 | 0.00 | 69 | 1010.5 |
| 20260506083003 | 10 | 345 | 6.4 | 12.9 | 0.00 | 0.00 | 0.00 | 71 | 1010.5 |
| 20260506081718 | 9 | 23 | 4.8 | 17.7 | 0.00 | 0.00 | 0.00 | 72 | 1010.4 |
| 20260506081433 | 9 | 9 | 6.4 | 17.7 | 0.00 | 0.00 | 0.00 | 73 | 1010.7 |
| 20260506073003 | 8 | 336 | 3.2 | 14.5 | 0.00 | 0.00 | 0.00 | 77 | 1010.4 |
| 20260506071503 | 8 | 307 | 3.2 | 12.9 | 0.00 | 0.00 | 0.00 | 77 | 1010.3 |
| 20260506071433 | 8 | 315 | 3.2 | 12.9 | 0.00 | 0.00 | 0.00 | 77 | 1010.4 |
| 20260506061720 | 7 | 335 | 1.6 | 12.9 | 0.00 | 0.00 | 0.00 | 82 | 1010.2 |
| 20260506061433 | 6 | 323 | 3.2 | 12.9 | 0.00 | 0.00 | 0.00 | 83 | 1010.2 |
| 20260506044717 | 6 | 353 | 1.6 | 9.7 | 0.00 | 0.00 | 0.00 | 84 | 1010.0 |
| 20260506044433 | 6 | 11 | 1.6 | 9.7 | 0.00 | 0.00 | 0.00 | 84 | 1010.1 |
| 20260506043003 | 6 | 334 | 3.2 | 6.4 | 0.00 | 0.00 | 0.00 | 84 | 1009.9 |
| 20260506041505 | 6 | 308 | 1.6 | 6.4 | 0.00 | 0.00 | 0.00 | 83 | 1010.1 |
| 20260506041433 | 6 | 313 | 1.6 | 6.4 | 0.00 | 0.00 | 0.00 | 83 | 1010.0 |
| 20260506040003 | 6 | 338 | 1.6 | 6.4 | 0.00 | 0.00 | 0.00 | 83 | 1009.8 |
| 20260506034505 | 7 | 17 | 3.2 | 9.7 | 0.00 | 0.00 | 0.00 | 82 | 1010.0 |
| 20260506034433 | 7 | 13 | 1.6 | 9.7 | 0.00 | 0.00 | 0.00 | 82 | 1010.1 |
| 20260506033220 | 7 | 4 | 3.2 | 6.4 | 0.00 | 0.00 | 0.00 | 82 | 1010.0 |
| 20260506031503 | 7 | 347 | 1.6 | 6.4 | 0.00 | 0.00 | 0.00 | 80 | 1009.8 |
| 20260506031433 | 7 | 352 | 1.6 | 6.4 | 0.00 | 0.00 | 0.00 | 80 | 1009.9 |
| 20260506030005 | 7 | 12 | 1.6 | 6.4 | 0.00 | 0.00 | 0.00 | 79 | 1010.2 |
| 20260506024503 | 7 | 16 | 3.2 | 6.4 | 0.00 | 0.00 | 0.00 | 78 | 1010.4 |
| 20260506024433 | 7 | 24 | 1.6 | 6.4 | 0.00 | 0.00 | 0.00 | 78 | 1010.4 |
| 20260506021503 | 8 | 22 | 1.6 | 11.3 | 0.00 | 0.00 | 0.00 | 79 | 1010.2 |
| 20260506021433 | 8 | 21 | 3.2 | 11.3 | 0.00 | 0.00 | 0.00 | 79 | 1010.4 |
| 20260506020004 | 8 | 344 | 3.2 | 11.3 | 0.00 | 0.00 | 0.00 | 80 | 1010.3 |
| 20260506014505 | 8 | 16 | 0.0 | 6.4 | 0.00 | 0.00 | 0.00 | 82 | 1010.5 |
| 20260506014433 | 8 | 13 | 0.0 | 6.4 | 0.00 | 0.00 | 0.00 | 82 | 1010.5 |
| 20260506013005 | 8 | 355 | 3.2 | 6.4 | 0.00 | 0.00 | 0.00 | 82 | 1010.6 |
| 20260506011503 | 8 | 19 | 3.2 | 6.4 | 0.00 | 0.00 | 0.00 | 82 | 1010.6 |
| 20260506011433 | 8 | 20 | 3.2 | 6.4 | 0.00 | 0.00 | 0.00 | 82 | 1010.4 |
| 20260506010005 | 8 | 25 | 1.6 | 6.4 | 0.00 | 0.00 | 0.00 | 81 | 1010.4 |
| 20260506004504 | 8 | 18 | 1.6 | 9.7 | 0.00 | 0.00 | 0.00 | 82 | 1010.6 |
| 20260506004433 | 8 | 20 | 1.6 | 9.7 | 0.00 | 0.00 | 0.00 | 82 | 1010.6 |
| 20260506003005 | 8 | 38 | 1.6 | 9.7 | 0.00 | 0.00 | 0.00 | 81 | 1010.6 |
| 20260506001504 | 8 | 16 | 1.6 | 12.9 | 0.00 | 0.00 | 0.00 | 81 | 1010.8 |
| 20260506001433 | 8 | 15 | 4.8 | 12.9 | 0.00 | 0.00 | 0.00 | 81 | 1010.6 |
| 20260506000005 | 8 | 25 | 3.2 | 11.3 | 0.00 | 0.00 | 0.00 | 80 | 1010.9 |
| 20260505234505 | 8 | 37 | 3.2 | 9.7 | 0.00 | 0.00 | 0.00 | 81 | 1010.6 |
| 20260505234433 | 8 | 33 | 3.2 | 9.7 | 0.00 | 0.00 | 0.00 | 81 | 1010.7 |
| 20260505233005 | 8 | 26 | 3.2 | 6.4 | 0.00 | 0.00 | 0.00 | 81 | 1010.8 |
| 20260505231717 | 8 | 31 | 3.2 | 9.7 | 0.00 | 0.00 | 0.00 | 81 | 1010.9 |
| 20260505231433 | 8 | 26 | 1.6 | 9.7 | 0.00 | 0.00 | 0.00 | 81 | 1010.9 |
| 20260505230218 | 8 | 55 | 1.6 | 11.3 | 0.00 | 0.00 | 0.00 | 81 | 1011.1 |
| 20260505224504 | 9 | 22 | 3.2 | 9.7 | 0.00 | 0.00 | 0.00 | 80 | 1010.9 |
| 20260505224433 | 9 | 22 | 4.8 | 9.7 | 0.00 | 0.00 | 0.00 | 80 | 1010.8 |
| 20260505221505 | 9 | 40 | 3.2 | 11.3 | 0.00 | 0.00 | 0.00 | 80 | 1010.9 |
| 20260505221433 | 9 | 39 | 3.2 | 11.3 | 0.00 | 0.00 | 0.00 | 80 | 1011.1 |
| 20260505220005 | 9 | 35 | 3.2 | 11.3 | 0.00 | 0.00 | 0.00 | 79 | 1010.9 |
| 20260505214504 | 10 | 19 | 4.8 | 12.9 | 0.00 | 0.00 | 0.00 | 78 | 1010.8 |
| 20260505214433 | 10 | 20 | 4.8 | 12.9 | 0.00 | 0.00 | 0.00 | 78 | 1010.8 |
| 20260505213005 | 10 | 30 | 4.8 | 14.5 | 0.00 | 0.00 | 0.00 | 81 | 1010.8 |
| 20260505211503 | 10 | 45 | 3.2 | 6.4 | 0.00 | 0.00 | 0.00 | 84 | 1010.7 |
| 20260505211433 | 10 | 48 | 3.2 | 6.4 | 0.00 | 0.00 | 0.00 | 84 | 1010.6 |
| 20260505210005 | 10 | 46 | 3.2 | 6.4 | 0.00 | 0.00 | 0.00 | 83 | 1010.9 |
| 20260505204503 | 10 | 55 | 4.8 | 17.7 | 0.00 | 0.00 | 0.00 | 84 | 1010.5 |
| 20260505204433 | 10 | 57 | 8.0 | 17.7 | 0.00 | 0.00 | 0.00 | 84 | 1010.8 |
| 20260505203003 | 10 | 70 | 6.4 | 12.9 | 0.00 | 0.00 | 0.00 | 84 | 1010.6 |
| 20260505201503 | 11 | 52 | 6.4 | 17.7 | 0.00 | 0.00 | 0.00 | 77 | 1010.7 |
| 20260505201433 | 11 | 49 | 6.4 | 17.7 | 0.00 | 0.00 | 0.00 | 77 | 1010.6 |
| 20260505200219 | 11 | 35 | 3.2 | 9.7 | 0.00 | 0.00 | 0.00 | 74 | 1010.3 |
| 20260505194505 | 11 | 63 | 0.0 | 6.4 | 0.00 | 0.00 | 0.00 | 69 | 1010.2 |
| 20260505194433 | 11 | 61 | 0.0 | 6.4 | 0.00 | 0.00 | 0.00 | 69 | 1010.2 |
| 20260505193005 | 11 | 44 | 0.0 | 3.2 | 0.00 | 0.00 | 0.00 | 69 | 1010.0 |
| 20260505191720 | 11 | 79 | 0.0 | 3.2 | 0.00 | 0.00 | 0.00 | 68 | 1009.8 |
| 20260505191433 | 11 | 72 | 1.6 | 3.2 | 0.00 | 0.00 | 0.00 | 68 | 1009.9 |
| 20260505190218 | 11 | 67 | 0.0 | 3.2 | 0.00 | 0.00 | 0.00 | 67 | 1009.6 |
| 20260505184503 | 12 | 70 | 0.0 | 6.4 | 0.00 | 0.00 | 0.00 | 66 | 1009.5 |
| 20260505184433 | 12 | 67 | 0.0 | 6.4 | 0.00 | 0.00 | 0.00 | 66 | 1009.6 |
| 20260505183004 | 12 | 63 | 1.6 | 9.7 | 0.00 | 0.00 | 0.00 | 65 | 1009.4 |
| 20260505181719 | 12 | 71 | 3.2 | 6.4 | 0.00 | 0.00 | 0.00 | 64 | 1009.5 |
| 20260505181433 | 12 | 69 | 3.2 | 6.4 | 0.00 | 0.00 | 0.00 | 65 | 1009.5 |
| 20260505180218 | 12 | 95 | 1.6 | 3.2 | 0.00 | 0.00 | 0.00 | 65 | 1009.6 |
| 20260505174503 | 12 | 58 | 0.0 | 3.2 | 0.00 | 0.00 | 0.00 | 63 | 1009.6 |
| 20260505174433 | 12 | 58 | 0.0 | 3.2 | 0.00 | 0.00 | 0.00 | 63 | 1009.4 |
| 20260505173005 | 12 | 71 | 1.6 | 3.2 | 0.00 | 0.00 | 0.00 | 63 | 1009.3 |
| 20260505171505 | 12 | 69 | 0.0 | 6.4 | 0.00 | 0.00 | 0.00 | 61 | 1009.3 |
| 20260505171433 | 12 | 73 | 0.0 | 6.4 | 0.00 | 0.00 | 0.00 | 62 | 1009.5 |
| 20260505170005 | 12 | 81 | 3.2 | 6.4 | 0.00 | 0.00 | 0.00 | 63 | 1009.6 |
| 20260505164505 | 13 | 91 | 3.2 | 6.4 | 0.00 | 0.00 | 0.00 | 63 | 1009.5 |
| 20260505164433 | 13 | 88 | 3.2 | 6.4 | 0.00 | 0.00 | 0.00 | 63 | 1009.5 |
| 20260505163003 | 13 | 61 | 3.2 | 12.9 | 0.00 | 0.00 | 0.00 | 60 | 1009.4 |
| 20260505161718 | 13 | 71 | 3.2 | 6.4 | 0.00 | 0.00 | 0.00 | 60 | 1009.5 |
| 20260505161433 | 13 | 68 | 3.2 | 6.4 | 0.00 | 0.00 | 0.00 | 61 | 1009.4 |
| 20260505151505 | 14 | 68 | 3.2 | 12.9 | 0.00 | 0.00 | 0.00 | 55 | 1009.7 |
| 20260505151433 | 14 | 69 | 3.2 | 14.5 | 0.00 | 0.00 | 0.00 | 55 | 1009.7 |
| 20260505124505 | 15 | 55 | 3.2 | 9.7 | 0.00 | 0.00 | 0.00 | 52 | 1010.0 |
| 20260505124433 | 15 | 58 | 3.2 | 9.7 | 0.00 | 0.00 | 0.00 | 52 | 1010.0 |
| 20260505123005 | 16 | 37 | 4.8 | 9.7 | 0.00 | 0.00 | 0.00 | 53 | 1010.0 |
| 20260505121503 | 16 | 76 | 3.2 | 17.7 | 0.00 | 0.00 | 0.00 | 48 | 1009.9 |
| 20260505121433 | 16 | 72 | 4.8 | 17.7 | 0.00 | 0.00 | 0.00 | 48 | 1009.9 |
| 20260505120005 | 16 | 42 | 3.2 | 6.4 | 0.00 | 0.00 | 0.00 | 52 | 1009.9 |
| 20260505114504 | 15 | 19 | 3.2 | 11.3 | 0.00 | 0.00 | 0.00 | 56 | 1010.1 |
| 20260505114433 | 15 | 24 | 4.8 | 11.3 | 0.00 | 0.00 | 0.00 | 54 | 1010.0 |
| 20260505113005 | 15 | 38 | 3.2 | 6.4 | 0.00 | 0.00 | 0.00 | 56 | 1009.9 |
| 20260505111719 | 15 | 54 | 4.8 | 12.9 | 0.00 | 0.00 | 0.00 | 57 | 1010.2 |
| 20260505111433 | 14 | 63 | 1.6 | 17.7 | 0.00 | 0.00 | 0.00 | 57 | 1010.4 |
| 20260505110220 | 15 | 39 | 3.2 | 12.9 | 0.00 | 0.00 | 0.00 | 54 | 1010.4 |